Wind_Speed
39 41 45 47 50 52 54 55 56 57 58 59 60 61 61 62 62 62 62 62 63 63 63 62 62 64 64 65 66 68 70 72 72 71 71 70 67 64 61 59 56 54 52
41 44 47 50 53 55 57 58 60 61 62 63 63 64 64 63 63 63 62 62 63 63 62 63 63 63 63 64 66 67 69 70 70 67 63 60 58 55 52 50 47 45 43
46 48 51 54 55 57 59 61 62 63 64 64 63 63 63 62 62 61 60 61 62 62 63 63 62 62 62 63 64 65 66 65 63 60 54 50 47 45 42 40 38 36 35
53 54 55 56 58 59 61 62 62 62 62 61 60 60 60 59 59 60 61 61 61 61 61 60 60 60 60 61 61 61 59 56 52 49 44 41 38 36 34 31 28 28 28
57 57 57 57 57 58 58 58 58 59 58 58 58 58 59 59 59 60 61 60 60 58 58 58 58 58 58 58 56 53 49 45 41 38 34 31 29 28 26 24 22 23 24
57 56 56 55 55 55 55 54 54 55 55 56 56 57 57 58 59 59 59 57 56 55 55 55 55 55 54 51 47 43 39 34 30 27 25 23 21 20 19 19 19 19 20
56 55 54 53 51 50 51 51 52 53 54 54 55 57 58 58 58 57 55 54 54 53 53 52 51 49 44 40 36 32 28 25 22 20 18 17 16 16 16 16 17 17 16
52 51 49 48 48 48 48 49 50 51 52 54 56 56 56 55 54 52 51 51 50 50 48 46 43 39 35 30 25 22 20 18 17 16 15 15 15 15 15 15 15 15 15
47 46 45 44 45 45 46 48 50 52 53 54 54 53 51 49 48 47 47 46 46 44 41 38 33 29 25 20 17 15 14 13 13 13 13 14 14 15 15 15 15 15 15
43 42 42 42 43 45 46 49 51 51 50 49 47 45 45 44 44 43 42 40 38 36 33 29 26 21 16 13 11 10 10 10 11 12 13 14 15 16 16 16 16 15 14
39 40 40 42 44 45 46 46 45 44 43 42 41 41 40 40 38 36 33 31 29 27 25 22 18 13 10 8 7 7 8 9 10 12 13 15 16 17 17 17 16 14 12
37 38 39 40 41 40 40 39 39 38 38 37 37 35 34 32 30 29 27 25 23 20 17 14 10 7 5 5 5 7 8 10 11 13 14 16 17 18 17 16 15 13 10
35 35 36 36 36 36 36 36 35 34 33 31 30 29 28 27 26 24 22 19 15 12 10 6 3 3 4 5 7 8 9 11 12 14 15 17 18 18 17 16 15 14 12
32 32 33 33 33 33 32 31 30 28 27 25 24 24 23 23 22 21 17 13 9 5 2 2 4 5 6 7 8 9 10 11 12 14 16 18 18 19 18 17 16 15 14
31 31 31 31 30 28 27 26 24 23 22 21 20 20 20 20 18 15 12 7 3 2 4 6 6 6 7 8 9 10 10 11 12 14 16 18 19 19 18 17 17 16 16
29 29 28 27 26 24 22 21 20 20 19 18 18 18 18 16 13 9 5 1 3 6 7 7 7 7 8 9 10 10 10 11 13 15 17 19 19 19 19 18 18 18 17
27 26 25 24 22 20 19 18 18 17 16 16 16 15 14 11 7 3 2 5 7 8 8 7 7 8 8 9 10 10 11 12 13 15 17 19 19 19 20 20 20 19 19
25 23 22 21 19 18 16 15 14 13 12 12 12 11 9 6 3 4 7 9 9 9 8 8 8 8 9 10 10 11 11 12 14 16 18 19 19 20 20 20 20 20 20
22 21 20 18 16 14 13 12 10 9 8 8 8 7 5 5 6 8 10 10 10 9 9 9 9 9 9 10 11 11 12 13 14 16 18 19 19 20 20 20 20 21 21
20 19 17 16 13 11 10 8 7 6 6 7 7 7 7 9 10 11 11 11 10 10 9 10 10 10 10 11 11 12 12 13 15 17 18 19 19 20 19 19 19 20 22
19 17 15 13 11 9 7 6 6 6 7 7 9 10 11 11 12 12 12 11 10 10 9 10 10 10 11 11 12 12 13 14 15 17 18 19 20 21 20 19 19 20 22
19 17 15 13 11 8 7 7 7 8 9 10 11 12 13 13 13 12 12 11 10 10 9 10 10 10 11 12 12 13 14 15 16 17 18 19 21 22 22 21 20 20 21
21 18 16 14 12 11 10 10 10 10 11 12 13 13 14 13 13 12 11 10 9 9 9 9 10 10 11 12 12 13 14 15 16 17 18 19 20 22 22 22 22 21 21
23 20 18 16 15 14 13 13 12 13 13 14 14 14 14 13 12 11 10 10 10 10 10 10 10 11 12 12 13 14 14 15 15 16 17 19 20 22 23 23 23 23 23
27 24 21 19 18 17 16 15 15 14 14 14 15 14 13 13 12 11 11 10 11 11 11 11 11 12 12 12 13 13 14 14 15 16 17 18 19 20 21 22 22 23 23
30 27 25 23 21 19 18 17 16 15 15 14 14 14 13 12 12 12 12 11 11 11 12 12 12 12 12 13 13 13 14 14 15 15 16 17 17 18 19 20 20 21 21
Wind_Direction
281 284 285 286 287 287 287 287 287 288 288 289 291 292 293 294 294 294 294 294 296 297 298 299 300 300 298 296 295 295 295 294 294 293 292 291 290 289 287 285 282 279 276
284 285 285 286 286 285 285 286 286 287 289 290 291 292 293 294 295 295 295 296 298 299 300 301 300 299 298 297 297 297 296 296 296 296 295 294 293 290 288 287 284 280 276
287 286 286 285 285 284 285 285 286 287 289 290 291 292 293 293 295 295 297 299 300 300 301 301 300 299 298 298 298 298 298 298 299 299 299 297 295 293 291 289 286 281 277
288 288 287 286 285 285 285 285 286 287 289 289 290 292 293 294 295 298 300 302 302 302 301 300 299 299 299 299 299 300 301 302 302 303 302 300 297 295 294 292 288 284 281
289 289 288 287 287 286 286 287 287 287 288 290 291 292 294 296 298 300 301 302 302 302 300 299 299 299 300 301 302 303 304 304 305 306 306 303 300 298 297 296 291 287 285
290 290 290 289 289 288 288 288 288 289 290 292 293 294 296 298 300 301 301 301 300 299 299 299 299 300 301 303 304 306 307 309 311 312 311 309 308 307 306 303 299 294 290
291 291 291 291 290 290 290 289 290 291 291 293 294 296 298 300 301 301 300 299 299 299 299 299 300 301 303 305 306 307 310 315 318 319 319 319 319 317 315 311 307 304 298
292 292 291 291 290 289 289 290 291 293 293 295 296 298 299 300 300 300 299 300 300 299 299 300 302 304 306 307 308 310 314 318 321 325 329 330 329 326 322 318 314 310 305
293 292 291 290 289 289 290 291 292 293 295 296 297 298 299 299 299 300 300 300 299 300 301 303 305 307 308 309 311 314 318 323 327 332 335 336 334 331 328 325 320 315 308
293 292 290 290 290 291 292 292 293 294 295 297 298 299 300 300 301 301 301 301 302 303 304 306 308 310 311 314 319 324 329 334 339 343 344 342 339 336 335 332 329 324 318
292 291 291 291 292 292 293 295 296 298 299 300 300 301 301 301 301 302 303 303 304 304 305 307 310 314 320 329 340 347 350 352 353 353 350 347 345 343 342 341 339 339 337
294 294 294 295 295 296 297 299 300 301 301 302 302 302 303 303 305 306 308 307 306 305 305 308 315 326 348 11 15 10 6 4 1 358 356 354 354 354 356 358 0 2 3
297 297 298 299 300 301 302 303 303 303 303 303 303 305 306 308 309 310 311 310 307 306 308 317 344 36 54 41 28 20 14 9 7 5 5 5 7 9 12 16 20 23 26
302 303 304 305 305 305 305 304 304 304 304 305 307 308 310 311 313 314 314 313 312 312 331 54 83 79 60 42 32 25 21 19 18 16 16 19 19 20 24 29 32 34 35
309 308 308 308 307 306 305 306 306 306 307 308 309 311 312 314 315 315 316 320 335 72 94 97 90 71 53 42 35 31 32 31 29 26 26 26 26 28 33 36 38 40 40
312 311 310 310 309 308 308 309 310 310 310 310 312 314 316 317 317 317 321 8 103 107 105 96 80 62 53 45 41 44 43 41 39 35 33 31 32 35 41 42 42 44 45
318 317 315 314 313 312 311 311 312 312 311 312 315 318 322 325 329 345 92 116 114 112 103 88 70 62 58 51 51 53 52 52 47 42 37 36 38 42 46 47 48 49 50
325 323 321 319 318 316 314 313 315 316 317 319 324 328 334 349 32 97 114 117 114 106 95 81 69 62 60 58 62 63 61 58 51 45 40 40 44 47 50 52 53 53 54
333 331 328 325 324 322 321 321 323 327 331 338 344 352 11 52 91 107 113 114 108 99 88 76 66 63 64 68 73 72 68 61 54 47 44 45 49 52 55 56 58 59 61
341 337 333 332 333 333 333 338 346 355 3 10 23 42 66 87 99 107 111 109 102 92 81 71 64 63 69 76 79 78 71 64 56 50 48 50 54 57 60 63 65 67 68
349 346 345 346 349 353 2 9 18 29 35 46 57 68 83 94 101 106 107 102 94 84 74 67 65 66 75 82 82 81 75 67 59 54 53 54 56 60 63 67 70 72 74
3 3 5 9 15 26 35 42 51 56 62 69 73 81 90 96 101 104 101 94 83 73 69 68 66 70 80 85 85 83 79 72 66 61 60 59 59 62 65 68 71 73 75
18 20 23 29 39 48 57 65 68 73 76 77 82 88 93 97 99 98 92 83 75 70 69 70 72 77 86 90 89 89 83 77 71 68 66 65 64 64 66 67 69 71 73
29 33 38 45 53 59 66 70 76 80 82 84 87 91 93 95 94 90 85 78 73 72 74 76 80 85 90 94 94 92 88 82 78 75 73 71 69 68 68 68 69 71 73
37 41 47 53 58 62 67 73 78 82 85 87 88 90 91 90 87 83 79 76 75 76 78 82 86 90 94 98 99 96 92 88 84 82 79 76 74 73 71 70 70 71 72
42 46 51 56 60 63 68 73 78 81 83 86 87 87 87 87 83 80 77 76 75 77 80 85 90 92 96 100 101 101 98 94 88 84 82 80 77 75 74 73 71 71 71
Height
5775 5773 5770 5767 5763 5759 5755 5750 5746 5742 5737 5733 5728 5723 5718 5713 5708 5702 5696 5690 5685 5678 5672 5666 5659 5652 5645 5636 5628 5620 5611 5602 5597 5592 5580 5570 5561 5554 5548 5542 5538 5535 5534
5765 5763 5759 5756 5752 5747 5743 5738 5733 5729 5724 5719 5714 5709 5704 5698 5692 5687 5681 5675 5669 5663 5656 5650 5642 5635 5627 5619 5611 5602 5592 5582 5574 5569 5561 5551 5543 5536 5531 5526 5522 5519 5518
5755 5751 5747 5743 5739 5734 5730 5725 5720 5715 5710 5705 5700 5694 5688 5683 5677 5671 5665 5659 5653 5647 5640 5634 5626 5618 5611 5602 5593 5584 5575 5565 5556 5550 5544 5536 5529 5522 5517 5514 5510 5507 5506
5742 5739 5734 5730 5725 5720 5715 5710 5705 5700 5695 5690 5685 5679 5673 5668 5662 5656 5650 5644 5638 5631 5624 5617 5610 5602 5594 5586 5578 5568 5559 5551 5543 5535 5529 5523 5517 5512 5507 5504 5501 5498 5497
5729 5724 5720 5715 5710 5705 5700 5695 5691 5686 5680 5675 5670 5665 5659 5653 5648 5641 5635 5629 5623 5616 5609 5601 5594 5587 5579 5571 5563 5555 5547 5540 5533 5526 5519 5514 5509 5504 5501 5498 5495 5493 5490
5714 5709 5704 5700 5695 5690 5685 5680 5676 5671 5666 5661 5655 5650 5645 5639 5633 5627 5620 5614 5607 5601 5594 5587 5580 5573 5566 5559 5551 5544 5537 5531 5525 5519 5514 5508 5504 5500 5496 5493 5490 5488 5485
5699 5694 5689 5684 5680 5675 5671 5666 5661 5657 5652 5647 5642 5636 5631 5625 5618 5612 5606 5600 5593 5587 5581 5574 5568 5561 5555 5549 5543 5536 5531 5525 5520 5515 5511 5506 5502 5498 5494 5490 5487 5484 5481
5684 5680 5675 5670 5666 5662 5657 5652 5648 5643 5639 5633 5628 5623 5617 5611 5605 5598 5592 5586 5579 5573 5568 5562 5557 5551 5546 5541 5536 5531 5527 5522 5518 5513 5509 5505 5500 5496 5492 5488 5485 5482 5478
5671 5667 5662 5658 5653 5649 5645 5640 5636 5631 5626 5621 5615 5610 5604 5598 5592 5586 5580 5573 5567 5562 5557 5552 5548 5544 5540 5535 5532 5528 5524 5521 5517 5512 5508 5504 5499 5495 5491 5486 5483 5479 5476
5659 5655 5650 5646 5642 5637 5633 5628 5623 5618 5613 5608 5602 5597 5591 5586 5580 5575 5569 5563 5557 5552 5548 5544 5541 5538 5535 5532 5529 5526 5523 5520 5516 5512 5508 5504 5499 5494 5489 5485 5480 5476 5473
5648 5644 5639 5635 5631 5626 5621 5616 5611 5606 5601 5596 5591 5586 5580 5575 5570 5565 5560 5555 5551 5546 5543 5540 5537 5534 5532 5530 5527 5525 5523 5520 5516 5512 5508 5503 5498 5493 5488 5483 5478 5474 5471
5638 5633 5629 5624 5620 5615 5610 5605 5600 5595 5591 5585 5580 5576 5571 5566 5562 5557 5553 5549 5545 5542 5539 5536 5534 5533 5531 5529 5528 5526 5523 5520 5517 5513 5508 5503 5498 5493 5487 5482 5478 5474 5470
5628 5624 5619 5614 5610 5605 5600 5595 5590 5586 5581 5576 5572 5568 5564 5559 5555 5551 5548 5544 5541 5538 5536 5535 5533 5532 5531 5530 5528 5526 5524 5521 5517 5513 5509 5504 5499 5493 5488 5484 5479 5476 5472
5620 5615 5610 5605 5600 5596 5591 5586 5582 5578 5574 5570 5566 5562 5558 5555 5551 5547 5543 5541 5538 5537 5535 5535 5534 5533 5533 5531 5529 5527 5525 5522 5519 5515 5511 5506 5501 5496 5491 5486 5483 5479 5475
5612 5607 5602 5597 5592 5588 5583 5579 5575 5572 5568 5565 5561 5558 5554 5550 5547 5543 5540 5539 5537 5536 5536 5536 5536 5535 5534 5533 5531 5529 5527 5524 5521 5517 5513 5509 5504 5499 5494 5490 5486 5483 5479
5605 5599 5594 5590 5585 5581 5577 5573 5570 5567 5563 5560 5557 5554 5550 5547 5544 5541 5539 5538 5538 5538 5538 5538 5537 5537 5536 5534 5533 5531 5529 5526 5524 5520 5517 5512 5508 5503 5499 5495 5491 5487 5484
5597 5592 5587 5583 5579 5575 5572 5569 5566 5562 5560 5557 5554 5551 5547 5544 5542 5540 5539 5539 5539 5540 5540 5540 5539 5539 5538 5536 5535 5533 5531 5529 5527 5524 5521 5517 5512 5508 5504 5501 5497 5493 5489
5591 5586 5581 5577 5573 5570 5567 5564 5562 5559 5557 5554 5551 5548 5546 5543 5542 5541 5541 5542 5542 5542 5542 5542 5542 5541 5540 5538 5537 5536 5534 5533 5531 5528 5525 5521 5517 5513 5510 5507 5503 5499 5496
5586 5581 5577 5573 5569 5566 5564 5561 5559 5557 5555 5552 5550 5548 5546 5544 5543 5543 5544 5544 5545 5545 5545 5545 5544 5543 5542 5541 5540 5539 5538 5536 5535 5532 5529 5526 5522 5519 5516 5513 5510 5507 5503
5583 5578 5574 5570 5567 5564 5561 5559 5557 5556 5554 5552 5550 5548 5547 5546 5546 5546 5547 5548 5548 5548 5548 5547 5546 5546 5545 5544 5543 5542 5541 5540 5539 5537 5534 5531 5528 5525 5522 5519 5517 5514 5511
5581 5576 5572 5568 5565 5562 5560 5559 5557 5556 5554 5553 5551 5550 5549 5549 5549 5550 5551 5551 5551 5551 5551 5550 5549 5548 5548 5547 5547 5546 5545 5544 5543 5541 5539 5537 5534 5531 5528 5526 5523 5521 5519
5580 5575 5571 5567 5564 5562 5560 5559 5558 5557 5556 5555 5554 5553 5553 5553 5553 5554 5554 5555 5555 5554 5553 5553 5552 5551 5551 5551 5550 5550 5550 5549 5548 5546 5544 5542 5540 5537 5535 5533 5531 5528 5526
5581 5576 5572 5568 5566 5564 5562 5561 5560 5559 5559 5558 5557 5557 5557 5557 5558 5558 5558 5558 5558 5557 5556 5556 5555 5555 5554 5554 5554 5554 5554 5553 5553 5552 5550 5548 5546 5544 5542 5540 5538 5536 5534
5583 5578 5574 5571 5569 5567 5565 5564 5563 5563 5562 5562 5562 5562 5562 5562 5562 5562 5562 5561 5561 5560 5559 5559 5558 5558 5558 5558 5558 5558 5558 5558 5558 5557 5556 5554 5553 5551 5549 5547 5546 5544 5542
5587 5582 5579 5575 5573 5571 5570 5569 5568 5567 5567 5567 5567 5567 5567 5567 5566 5566 5565 5565 5564 5563 5563 5562 5562 5562 5562 5562 5562 5562 5563 5563 5562 5562 5561 5560 5559 5558 5556 5555 5553 5552 5550
5593 5588 5584 5581 5579 5577 5575 5574 5573 5572 5572 5572 5572 5571 5571 5571 5571 5570 5569 5568 5568 5567 5566 5566 5566 5566 5566 5566 5566 5566 5567 5567 5567 5567 5566 5566 5565 5564 5562 5561 5560 5559 5558